TimeADT,TemperatureF,Dew PointF,Humidity,Sea Level PressureIn,VisibilityMPH,Wind Direction,Wind SpeedMPH,Gust SpeedMPH,PrecipitationIn,Events,Conditions,WindDirDegrees,DateUTC
12:00 AM,42.8,42.8,100,30.22,15.0,NW,3.5,-,N/A,,Clear,310,2013-09-28 03:00:00
1:00 AM,42.8,42.8,100,30.22,15.0,NNW,4.6,-,N/A,,Clear,330,2013-09-28 04:00:00
2:00 AM,42.8,42.8,100,30.23,15.0,WNW,4.6,-,N/A,,Clear,300,2013-09-28 05:00:00
3:00 AM,41,41,99,30.22,15,WNW,2.3,,,,,290,2013-09-28 06:00:00
3:00 AM,41.0,41.0,100,30.22,15.0,WNW,2.3,-,N/A,,Clear,290,2013-09-28 06:00:00
4:00 AM,44.6,44.6,100,30.23,15.0,WSW,5.8,-,N/A,Fog,Patches of Fog,250,2013-09-28 07:00:00
4:14 AM,42.8,42.8,100,30.23,0.5,West,5.8,-,N/A,Fog,Fog,260,2013-09-28 07:14:00
4:46 AM,44.6,44.6,100,30.24,15.0,West,4.6,-,N/A,Fog,Shallow Fog,270,2013-09-28 07:46:00
5:00 AM,42.8,42.8,100,30.24,15.0,West,3.5,-,N/A,Fog,Shallow Fog,270,2013-09-28 08:00:00
6:00 AM,46.4,46.4,100,30.26,15.0,West,4.6,-,N/A,Fog,Shallow Fog,280,2013-09-28 09:00:00
7:00 AM,44.6,44.6,100,30.27,15.0,West,3.5,-,N/A,Fog,Shallow Fog,280,2013-09-28 10:00:00
8:00 AM,48.2,48.2,100,30.27,15.0,West,4.6,-,N/A,Fog,Shallow Fog,270,2013-09-28 11:00:00
9:00 AM,51,49,92,30.27,15,West,4.6,,,,Scattered Clouds,270,2013-09-28 12:00:00
9:00 AM,51.8,50.0,94,30.27,15.0,West,4.6,-,N/A,,Partly Cloudy,270,2013-09-28 12:00:00
10:00 AM,55.4,50.0,82,30.29,15.0,West,5.8,-,N/A,,Partly Cloudy,270,2013-09-28 13:00:00
11:00 AM,60.8,50.0,68,30.29,15.0,West,5.8,-,N/A,,Partly Cloudy,270,2013-09-28 14:00:00
12:00 PM,64.4,50.0,59,30.28,15.0,West,5.8,-,N/A,,Partly Cloudy,270,2013-09-28 15:00:00
1:00 PM,66.2,48.2,52,30.27,15.0,WNW,6.9,-,N/A,,Partly Cloudy,300,2013-09-28 16:00:00
2:00 PM,69.8,50.0,49,30.26,15.0,West,10.4,-,N/A,,Partly Cloudy,260,2013-09-28 17:00:00
3:00 PM,70,50,39,30.24,15,West,8.1,,,,Clear,270,2013-09-28 18:00:00
3:00 PM,69.8,50.0,49,30.24,15.0,West,8.1,-,N/A,,Partly Cloudy,260,2013-09-28 18:00:00
4:00 PM,69.8,50.0,49,30.23,15.0,West,8.1,-,N/A,,Partly Cloudy,260,2013-09-28 19:00:00
5:00 PM,68.0,46.4,46,30.23,15.0,WSW,8.1,-,N/A,,Partly Cloudy,250,2013-09-28 20:00:00
6:00 PM,66.2,46.4,49,30.22,15.0,West,6.9,-,N/A,,Partly Cloudy,260,2013-09-28 21:00:00
7:00 PM,62.6,48.2,59,30.22,15.0,WSW,4.6,-,N/A,,Partly Cloudy,240,2013-09-28 22:00:00
8:00 PM,60.8,48.2,63,30.22,15.0,WSW,8.1,-,N/A,,Partly Cloudy,240,2013-09-28 23:00:00
9:00 PM,58,50,68,30.23,15,WSW,9.2,,,,Clear,240,2013-09-29 00:00:00
9:00 PM,59.0,50.0,72,30.23,15.0,WSW,8.1,-,N/A,,Partly Cloudy,240,2013-09-29 00:00:00
10:00 PM,57.2,50.0,77,30.23,15.0,WSW,8.1,-,N/A,,Clear,240,2013-09-29 01:00:00
11:00 PM,57.2,50.0,77,30.22,15.0,WSW,8.1,-,N/A,,Clear,240,2013-09-29 02:00:00